Location: George Washington National Forest Helicopter Landing Site
(38.6463°N, 79.0851°W)
Time: 14:37:04
(UTC-04:00)

Vanguard 3 - All Passes

Search period start: 24 August 2019 00:00
Search period end: 03 September 2019 00:00
Orbit: 508 x 3263 km, 33.3° (Epoch: 24 August)

Date Brightness Start Highest point End Pass type
(mag) Time Alt. Az. Time Alt. Az. Time Alt. Az.
24 Aug - 14:08:02 10° S 14:13:01 13° SSE 14:17:12 10° SE daylight
24 Aug - 16:16:55 10° SW 16:26:22 30° SSE 16:32:21 10° ESE daylight
24 Aug - 18:30:52 10° WSW 18:38:39 47° S 18:43:21 10° E daylight
24 Aug - 20:45:01 10° W 20:49:57 39° SSW 20:53:34 10° ESE visible
24 Aug - 22:59:19 10° SW 23:00:35 11° SSW 23:01:50 10° S visible
25 Aug - 15:01:52 10° SSW 15:11:41 24° SSE 15:18:23 10° ESE daylight
25 Aug - 17:14:58 10° SW 17:24:37 43° SSE 17:30:18 10° E daylight
25 Aug - 19:29:44 10° WSW 19:36:28 50° S 19:40:43 10° ESE daylight
25 Aug - 21:43:47 10° WSW 21:47:21 22° SSW 21:50:20 10° SSE visible
26 Aug - 13:47:53 10° S 13:56:37 18° SSE 14:03:17 10° ESE daylight
26 Aug - 15:58:59 10° SW 16:10:12 37° SSE 16:16:59 10° E daylight
26 Aug - 18:13:50 10° WSW 18:22:40 53° S 18:27:49 10° E daylight
26 Aug - 20:28:37 10° W 20:34:04 38° SSW 20:37:52 10° SE visible
27 Aug - 12:37:12 10° SSE 12:41:14 11° SE 12:44:54 10° SE daylight
27 Aug - 14:43:21 10° SSW 14:55:20 30° SSE 15:03:09 10° E daylight
27 Aug - 16:57:31 10° WSW 17:08:31 50° S 17:14:46 10° E daylight
27 Aug - 19:12:58 10° W 19:20:33 52° S 19:25:08 10° ESE daylight
27 Aug - 21:27:42 10° WSW 21:31:23 20° SSW 21:34:21 10° SSE visible
28 Aug - 13:28:38 10° SSW 13:40:05 23° SSE 13:48:26 10° ESE daylight
28 Aug - 15:41:05 10° SW 15:53:55 44° SSE 16:01:28 10° E daylight
28 Aug - 17:56:44 10° WSW 18:06:39 58° S 18:12:15 10° ESE daylight
28 Aug - 20:12:06 10° W 20:18:09 37° SSW 20:22:10 10° SE visible
29 Aug - 12:15:51 10° S 12:24:34 16° SE 12:31:50 10° ESE daylight
29 Aug - 14:25:00 10° SW 14:38:52 36° SSE 14:47:41 10° E daylight
29 Aug - 16:40:01 10° WSW 16:52:19 56° S 16:59:11 10° E daylight
29 Aug - 18:56:07 10° W 19:04:34 53° S 19:09:32 10° ESE daylight
29 Aug - 21:11:32 10° WSW 21:15:21 19° SSW 21:18:21 10° SSE visible
30 Aug - 13:09:46 10° SSW 13:23:26 28° SSE 13:33:09 10° E daylight
30 Aug - 15:23:12 10° SW 15:37:31 50° SSE 15:45:51 10° E daylight
30 Aug - 17:39:31 10° WSW 17:50:32 61° S 17:56:39 10° ESE daylight
30 Aug - 19:55:28 10° W 20:02:08 36° SSW 20:06:26 10° SE daylight
31 Aug - 11:56:06 10° S 12:07:45 20° SE 12:17:10 10° ESE daylight
31 Aug - 14:06:46 10° SW 14:22:15 42° SSE 14:32:03 10° E daylight
31 Aug - 16:22:28 10° WSW 16:36:02 61° S 16:43:33 10° E daylight
31 Aug - 18:39:07 10° W 18:48:30 53° SSW 18:53:53 10° ESE daylight
31 Aug - 20:55:17 10° WSW 20:59:14 18° SW 21:02:19 10° S visible
01 Sep - 10:46:12 10° SSE 10:52:01 12° SE 10:57:24 10° ESE daylight
01 Sep - 12:51:11 10° SSW 13:06:37 34° SSE 13:17:34 10° E daylight
01 Sep - 15:05:21 10° WSW 15:21:01 56° SSE 15:30:08 10° E daylight
01 Sep - 17:22:13 10° W 17:34:21 63° S 17:41:00 10° ESE daylight
01 Sep - 19:38:43 10° W 19:46:03 35° SSW 19:50:40 10° SE daylight
02 Sep - 11:37:00 10° S 11:50:46 25° SE 12:01:53 10° E daylight
02 Sep - 13:48:40 10° SW 14:05:31 48° SSE 14:16:17 10° E daylight
02 Sep - 16:04:53 10° WSW 16:19:39 65° S 16:27:51 10° E daylight
02 Sep - 18:22:01 10° W 18:32:22 53° SSW 18:38:13 10° ESE daylight
02 Sep - 20:38:57 10° WSW 20:43:03 17° SW 20:46:12 10° S visible
